Tracking 17143 objects as of 26-May-2015
HD Live streaming from Space Station

ARTEMIS

Track ARTEMIS now!
ARTEMIS is classified as:


NORAD ID: 26863
Int'l Code: 2001-029A
Perigee: 35,791.4 km
Apogee: 35,796.7 km
Inclination: 11.8 °
Period: 1,436.1 minutes
Semi major axis: 42165 km
RCS: 10 m2 (large)
Launch date: July 12, 2001
Source: European Space Agency (ESA)

An 18-month rescue mission recovered the satellite; develop European capabilities in satellite communications; test new technologies; support development of European navigation system (EGNOS, c. 2010).
Your satellite tracking list
Your tracking list is empty





NASA's NSSDC Master Catalog

Two Line Element Set (TLE):
1 26863U 01029A   15143.96027204  .00000101  00000-0  00000+0 0  9992
2 26863 011.8022 041.3277 0000627 094.0331 112.9743 01.00270543 51870

Source of the keplerian elements: AFSPC

N2YO: 304